Regional Weather Roundup
Issued by NWS

Home | Current Version | Previous Version | Text Only | Print | Product List | Glossary On
Versions: 1 2 3 4 5 6 7 8 9 10 11 12 13 14 15 16 17 18 19 20 21 22 23 24 25 26 27 28 29 30 31 32 33 34 35 36 37 38 39 40 41 42 43 44 45 46 47 48 49 50
000
ASUS43 KDTX 040310
RWRMI
MICHIGAN HOURLY REGIONAL WEATHER ROUNDUP
NATIONAL WEATHER SERVICE DETROIT/PONTIAC MI
ISSUED BY NATIONAL WEATHER SERVICE GRAND RAPIDS MI
1100 PM EDT THU SEP 03 2015

NOTE: "FAIR" INDICATES FEW OR NO CLOUDS BELOW 12,000 FEET WITH NO
SIGNIFICANT WEATHER AND/OR OBSTRUCTION TO VISIBILITY.

MIZ047>049-052>055-059>063-066>070-074>076-081>083-040400-
SOUTHEAST LOWER MICHIGAN

CITY           SKY/WX    TMP DP  RH WIND       PRES   REMARKS
ADRIAN         CLOUDY    71  69  93 CALM      29.94S
ALMA           FOG       67  67  99 E3        29.93R VSB 1/2
ANN ARBOR      LGT RAIN  67  66  97 E8        29.95F
BAD AXE        CLOUDY    67  67  97 CALM      29.96S
DETROIT CITY   LGT RAIN  69  67  93 SE9       29.96F
DETROIT        TSTM      68  65  90 E8        29.96R
FLINT          CLOUDY    70  66  87 S8        29.93R
GROSSE ILE     LGT RAIN  70  66  88 NE6       29.95R
HILLSDALE      CLOUDY    71  71 100 CALM      29.93F
HOWELL         LGT RAIN  68  67  97 SE8G16    29.95R

CITY           SKY/WX    TMP DP  RH WIND       PRES   REMARKS
JACKSON        HVY RAIN  71  69  93 SE6       29.93R FOG
LANSING        CLOUDY    70  67  90 SE5       29.93S
MASON          CLOUDY    70  67  91 CALM      29.93S
MONROE         CLOUDY    70  68  94 E8        29.91S
MT. CLEMENS    LGT RAIN  70  68  94 SE13      29.94S
PONTIAC        CLOUDY    68  67  96 S12       29.95S
PORT HOPE        N/A     68  67  96 S3        29.95R
PORT HURON     LGT RAIN  66  66 100 S5        29.95S
TRI CITIES     CLOUDY    68  65  90 E8        29.94S
YPSILANTI      TSTM      70  66  87 E9        29.97R
$$
MIZ043>046-050>051-056>058-064>065-071>073-077>080-040400-
SOUTHWEST LOWER MICHIGAN

CITY           SKY/WX    TMP DP  RH WIND       PRES   REMARKS
BATTLE CREEK   MOCLDY    76  70  82 N6        29.94R
BENTON HARBOR  PTCLDY    71  67  87 VRB5      29.93R
BIG RAPIDS     DRIZZLE   69  67  94 CALM      29.92S
COLDWATER      PTCLDY    73  72  95 CALM      29.93R
HOLLAND        PTCLDY    69  66  90 CALM      29.93S
GRAND RAPIDS   MOCLDY    71  67  87 W7        29.92R
KALAMAZOO      PTCLDY    74  68  81 N7        29.93R
MARSHALL       CLOUDY    73  71  93 CALM      29.92S
MOUNT PLEASANT CLOUDY    69  67  93 E6        29.93R
MUSKEGON       PTCLDY    69  65  86 NW5       29.92R
STURGIS        PTCLDY    73  72  94 CALM      29.92S
$$
MIZ016>042-040400-
NORTHERN LOWER MICHIGAN

CITY           SKY/WX    TMP DP  RH WIND       PRES   REMARKS
ALPENA         CLOUDY    68  66  93 N6        29.98R
BEAVER ISLAND  PTCLDY    67  65  94 E8        29.98F
BELLAIRE       CLOUDY    68  65  91 N3        29.96S
CADILLAC       RAIN      67  66  97 N7        29.94S
CHARLEVOIX     CLOUDY    69  67  94 E5        30.00S FOG
GAYLORD        LGT RAIN  67  67 100 NE7       29.99S FOG
HOUGHTON LAKE  CLOUDY    66  64  93 E9        29.97R
MANISTEE       MOCLDY    68  64  88 NE3       29.93S
OSCODA         CLOUDY    67  66  99 CALM      29.95S FOG
PELLSTON       CLOUDY    67  65  93 CALM      29.98S
TRAVERSE CITY  CLOUDY    69  66  90 NE8       29.93F
LUDINGTON      CLOUDY    71  69  93 CALM      29.93S
$$
MIZ007>008-015-040400-
EASTERN UPPER MICHIGAN

CITY           SKY/WX    TMP DP  RH WIND       PRES   REMARKS
KINROSS        MOCLDY    66  64  94 NE3       30.00F
MACKINAC ISLAN MOCLDY    65  64  97 NE6       29.99S FOG
NEWBERRY       PTCLDY    65  62  90 NE3       30.01R
S. S. MARIE    PTCLDY    66  62  87 CALM      30.00S
$$
MIZ004>006-011>014-085-040400-
CENTRAL UPPER MICHIGAN

CITY           SKY/WX    TMP DP  RH WIND       PRES   REMARKS
MANISTIQUE     CLEAR     63  60  92 CALM      29.98F
ESCANABA       CLEAR     66  61  82 N5        29.97S
MENOMINEE      CLEAR     66  61  82 N3        29.96S
$$
MIZ001>003-009>011-084-040400-
WESTERN UPPER MICHIGAN

CITY           SKY/WX    TMP DP  RH WIND       PRES   REMARKS
IRON MOUNTAIN  CLEAR     66  60  81 CALM      30.00R
HOUGHTON       CLEAR     62  57  83 E6        30.02R
COPPER HARBOR    N/A     64  58  80 SE3       30.02R
IRONWOOD       CLEAR     63  61  94 E3        29.97S
$$

ABBREVIATIONS USED IN REMARKS
   TC - TEMPERATURE IN CELSIUS
  WCI - WIND CHILL INDEX
   HX - HEAT INDEX
  VSB - VISIBILITY




USA.gov is the U.S. government's official web portal to all federal, state and local government web resources and services.